KRAKSAT

Last updated on Sun Jan 16 2022 00:02:05 GMT+0000 (Coordinated Universal Time)

1 44427U 98067QM 22014.99962613 .01795080 11802-4 98586-3 0 9990 2 44427 51.6301 286.4795 0008988 186.6244 269.3880 16.18744900144896

Satellite not in orbit